Weather History for Alexander City, AL

Change the Weather History Date:

Tuesday, November 20, 2012

  Actual Average (KAUO) Record (KAUO)
Temperature  
Mean Temperature 57 °F -  
Max Temperature 70 °F - 80 °F (1985)
Min Temperature 44 °F - 25 °F (1968)
Degree Days  
Heating Degree Days 8    
Month to date heating degree days  
Since 1 July heating degree days  
Growing Degree Days 7 (Base 50)    
Moisture  
Dew Point 45 °F    
Average Humidity 66    
Maximum Humidity 90    
Minimum Humidity 35    
Precipitation  
Precipitation 0.00 in - 3.10 in (1986)
Month to date precipitation  
Year to date precipitation  
Sea Level Pressure  
Sea Level Pressure 30.14 in    
Wind  
Wind Speed 1 mph (WNW)    
Max Wind Speed 6 mph    
Max Gust Speed -    
Visibility 10 miles    
Events      
T = Trace of Precipitation, MM = Missing Value Source: NWS Daily Summary

Daily Weather History Graph

Daily Weather History Graph

Search for Another Location

Airport:

Trip Planner

Search our weather history database for the weather conditions in past years. The results will help you decide how hot, cold, wet, or windy it might be!

Date:

Astronomy

Nov. 20, 2012 Rise Set
Actual Time 6:19 AM CST 4:39 PM CST
Civil Twilight 5:52 AM CST 5:06 PM CST
Nautical Twilight 5:22 AM CST 5:36 PM CST
Astronomical Twilight 4:53 AM CST 6:05 PM CST
Moon 12:04 PM CST (11/20) 11:58 PM CST (11/20)
Length of Visible Light 11h 13m
Length of Day
10h 20m
First Quarter, 51% of the Moon is Illuminated
Nov 20
First Quarter
Nov 28
Full
Dec 6
Last Quarter
Dec 13
New
Dec 19
First Quarter

Hourly Weather History & Observations

Time (CST) Temp. Dew Point Humidity Pressure Visibility Wind Dir Wind Speed Gust Speed Precip Events Conditions
12:15 AM 54.7 °F 48.7 °F 80% 30.17 in 10.0 mi Calm Calm - N/A   Overcast
12:35 AM 52.2 °F 47.3 °F 83% 30.18 in 10.0 mi Calm Calm - N/A   Overcast
12:55 AM 54.7 °F 48.7 °F 80% 30.18 in 10.0 mi Calm Calm - N/A   Overcast
1:15 AM 52.9 °F 47.5 °F 82% 30.17 in 10.0 mi Calm Calm - N/A   Overcast
1:35 AM 49.6 °F 45.5 °F 86% 30.16 in 10.0 mi Calm Calm - N/A   Mostly Cloudy
1:55 AM 49.6 °F 45.5 °F 86% 30.16 in 10.0 mi Calm Calm - N/A   Scattered Clouds
2:15 AM 49.6 °F 45.7 °F 86% 30.17 in 10.0 mi Calm Calm - N/A   Overcast
2:35 AM 49.6 °F 45.5 °F 86% 30.16 in 10.0 mi Calm Calm - N/A   Mostly Cloudy
6:15 AM 44.6 °F 41.5 °F 89% 30.18 in 7.0 mi Calm Calm - N/A   Clear
6:35 AM 46.2 °F 43.3 °F 90% 30.18 in 7.0 mi Calm Calm - N/A   Clear
6:55 AM 47.3 °F 44.1 °F 88% 30.19 in 7.0 mi Calm Calm - N/A   Clear
7:15 AM 47.3 °F 43.7 °F 87% 30.20 in 10.0 mi Calm Calm - N/A   Clear
7:35 AM 49.6 °F 46.4 °F 89% 30.20 in 10.0 mi Calm Calm - N/A   Clear
7:55 AM 54.7 °F 49.5 °F 83% 30.20 in 10.0 mi Calm Calm - N/A   Clear
8:15 AM 54.7 °F 48.9 °F 81% 30.20 in 10.0 mi Calm Calm - N/A   Clear
8:35 AM 57.2 °F 48.6 °F 73% 30.20 in 10.0 mi Calm Calm - N/A   Scattered Clouds
8:55 AM 61.3 °F 48.2 °F 62% 30.21 in 10.0 mi Calm Calm - N/A   Scattered Clouds
9:15 AM 64.4 °F 47.7 °F 55% 30.21 in 10.0 mi Calm Calm - N/A   Scattered Clouds
9:35 AM 66.2 °F 46.0 °F 48% 30.20 in 10.0 mi Calm Calm - N/A   Clear
9:55 AM 64.8 °F 44.4 °F 48% 30.20 in 10.0 mi Calm Calm - N/A   Mostly Cloudy
10:15 AM 67.3 °F 46.0 °F 46% 30.19 in 10.0 mi Calm Calm - N/A   Scattered Clouds
10:35 AM 69.3 °F 47.1 °F 45% 30.18 in 10.0 mi NE 3.5 mph - N/A   Clear
10:55 AM 67.3 °F 45.7 °F 46% 30.17 in 10.0 mi North 5.8 mph - N/A   Clear
11:15 AM 69.8 °F 46.9 °F 44% 30.16 in 10.0 mi Calm Calm - N/A   Clear
11:35 AM 69.8 °F 46.6 °F 43% 30.14 in 10.0 mi Calm Calm - N/A   Clear
11:55 AM 69.8 °F 46.2 °F 43% 30.14 in 10.0 mi Calm Calm - N/A   Clear
12:15 PM 69.8 °F 44.4 °F 40% 30.13 in 10.0 mi Calm Calm - N/A   Clear
12:35 PM 69.8 °F 44.2 °F 40% 30.12 in 10.0 mi NW 3.5 mph - N/A   Clear
1:15 PM 69.8 °F 41.7 °F 36% 30.11 in 10.0 mi Calm Calm - N/A   Clear
1:35 PM 70.2 °F 41.9 °F 36% 30.10 in 10.0 mi ESE 3.5 mph - N/A   Clear
2:15 PM 69.8 °F 42.4 °F 37% 30.09 in 10.0 mi WNW 5.8 mph - N/A   Clear
2:35 PM 69.8 °F 41.7 °F 36% 30.09 in 10.0 mi NW 4.6 mph - N/A   Clear
2:55 PM 69.8 °F 41.2 °F 35% 30.09 in 10.0 mi West 3.5 mph - N/A   Clear
3:15 PM 69.8 °F 40.8 °F 35% 30.09 in 10.0 mi West 5.8 mph - N/A   Clear
3:35 PM 69.8 °F 40.8 °F 35% 30.09 in 10.0 mi West 4.6 mph - N/A   Clear
3:55 PM 69.8 °F 41.2 °F 35% 30.09 in 10.0 mi WNW 4.6 mph - N/A   Clear
4:15 PM 69.8 °F 41.5 °F 36% 30.09 in 10.0 mi West 5.8 mph - N/A   Clear
4:35 PM 66.2 °F 41.7 °F 41% 30.09 in 10.0 mi WNW 3.5 mph - N/A   Clear
4:55 PM 62.2 °F 43.2 °F 50% 30.09 in 10.0 mi West 3.5 mph - N/A   Clear
5:15 PM 57.7 °F 44.1 °F 60% 30.09 in 10.0 mi West 3.5 mph - N/A   Clear
5:35 PM 57.2 °F 47.7 °F 70% 30.10 in 10.0 mi Calm Calm - N/A   Clear
5:55 PM 55.2 °F 45.5 °F 70% 30.11 in 10.0 mi Calm Calm - N/A   Clear
6:15 PM 56.3 °F 46.2 °F 69% 30.11 in 10.0 mi Calm Calm - N/A   Clear
6:35 PM 54.7 °F 45.5 °F 71% 30.11 in 10.0 mi Calm Calm - N/A   Clear
6:55 PM 54.7 °F 47.8 °F 78% 30.12 in 10.0 mi Calm Calm - N/A   Clear
7:15 PM 50.0 °F 43.5 °F 78% 30.11 in 10.0 mi Calm Calm - N/A   Clear
7:35 PM 52.2 °F 45.7 °F 79% 30.12 in 10.0 mi Calm Calm - N/A   Clear
7:55 PM 52.2 °F 45.7 °F 79% 30.12 in 10.0 mi Calm Calm - N/A   Clear
8:15 PM 49.6 °F 44.2 °F 82% 30.12 in 10.0 mi Calm Calm - N/A   Clear
8:35 PM 49.6 °F 45.3 °F 85% 30.12 in 10.0 mi Calm Calm - N/A   Clear
8:55 PM 49.6 °F 43.9 °F 81% 30.12 in 10.0 mi Calm Calm - N/A   Clear
9:15 PM 49.6 °F 44.6 °F 83% 30.13 in 10.0 mi Calm Calm - N/A   Clear
9:35 PM 49.6 °F 44.8 °F 83% 30.13 in 10.0 mi Calm Calm - N/A   Clear
9:55 PM 49.6 °F 44.8 °F 83% 30.13 in 10.0 mi Calm Calm - N/A   Clear
10:15 PM 49.6 °F 45.5 °F 86% 30.13 in 10.0 mi Calm Calm - N/A   Clear
10:35 PM 49.6 °F 45.5 °F 86% 30.14 in 7.0 mi Calm Calm - N/A   Clear
10:55 PM 44.6 °F 40.3 °F 85% 30.14 in 10.0 mi Calm Calm - N/A   Clear
11:15 PM 46.6 °F 41.9 °F 84% 30.14 in 10.0 mi Calm Calm - N/A   Clear
11:35 PM 47.3 °F 43.7 °F 87% 30.13 in 10.0 mi Calm Calm - N/A   Clear
11:55 PM 49.6 °F 45.9 °F 87% 30.13 in 10.0 mi Calm Calm - N/A   Clear